EW5954 Weather Reports


Display with metric or nautical units.
time (UTC)temp
F
wind
direction
speed
MPH
gust
MPH
rain 1hr
in
rain 24hr
in
rain mn
in
humidity
%
barometer
mb
20260505023801 65 283 2.0 5.0 0.00 0.00 0.00 60
20260505023258 65 267 3.0 6.0 0.00 0.00 0.00 60
20260505022755 65 261 3.0 7.0 0.00 0.00 0.00 59
20260505022252 65 182 5.0 7.0 0.00 0.00 0.00 58
20260505021749 64 313 1.0 3.0 0.00 0.00 0.00 58
20260505021246 64 324 1.0 3.0 0.00 0.00 0.00 57
20260505020742 65 351 2.0 2.0 0.00 0.00 0.00 56
20260505020237 65 308 1.0 6.0 0.00 0.00 0.00 56
20260505015735 65 344 0.0 3.0 0.00 0.00 0.00 55
20260505015232 64 252 3.0 5.0 0.00 0.00 0.00 55
20260505014729 64 266 0.0 5.0 0.00 0.00 0.00 54
20260505014226 65 305 2.0 2.0 0.00 0.00 0.00 53
20260505013722 65 234 1.0 2.0 0.00 0.00 0.00 53
20260505013220 65 291 1.0 3.0 0.00 0.00 0.00 52
20260505012718 65 279 2.0 2.0 0.00 0.00 0.00 51
20260505012215 65 192 0.0 3.0 0.00 0.00 0.00 51
20260505011710 65 277 2.0 5.0 0.00 0.00 0.00 50
20260505011208 66 265 3.0 3.0 0.00 0.00 0.00 49
20260505010703 65 249 2.0 5.0 0.00 0.00 0.00 49
20260505010200 65 324 0.0 3.0 0.00 0.00 0.00 49
20260505005656 66 65 0.0 3.0 0.00 0.00 0.00 48
20260505005154 66 342 1.0 3.0 0.00 0.00 0.00 47
20260505004650 66 162 2.0 5.0 0.00 0.00 0.00 47
20260505004147 66 182 0.0 2.0 0.00 0.00 0.00 46
20260505003644 67 5 0.0 8.0 0.00 0.00 0.00 45
20260505003142 67 312 5.0 7.0 0.00 0.00 0.00 44
20260505002638 67 260 2.0 6.0 0.00 0.00 0.00 44
20260505002136 68 201 4.0 6.0 0.00 0.00 0.00 43
20260505001633 68 238 5.0 8.0 0.00 0.00 0.00 42
20260505001130 68 33 2.0 5.0 0.00 0.00 0.00 42
20260505000627 68 165 2.0 9.0 0.00 0.00 0.00 41
20260505000125 68 344 3.0 8.0 0.00 0.00 0.00 41
20260504235621 68 212 5.0 7.0 0.00 0.00 0.00 41
20260504235118 69 4 0.0 6.0 0.00 0.00 0.00 41
20260504234615 69 104 1.0 7.0 0.00 0.00 0.00 40
20260504234112 69 257 6.0 10.0 0.00 0.00 0.00 40
20260504233608 69 162 2.0 8.0 0.00 0.00 0.00 40
20260504233104 69 232 1.0 11.0 0.00 0.00 0.00 40
20260504232602 69 187 3.0 7.0 0.00 0.00 0.00 40
20260504232059 69 274 9.0 16.0 0.00 0.00 0.00 39
20260504231555 70 169 2.0 8.0 0.00 0.00 0.00 40
20260504231051 70 214 6.0 14.0 0.00 0.00 0.00 38
20260504230547 71 279 7.0 11.0 0.00 0.00 0.00 38
20260504230047 71 155 3.0 7.0 0.00 0.00 0.00 39
20260504225544 71 141 1.0 9.0 0.00 0.00 0.00 39
20260504225041 71 186 7.0 11.0 0.00 0.00 0.00 38
20260504224537 71 187 6.0 11.0 0.00 0.00 0.00 38
20260504224035 71 257 1.0 3.0 0.00 0.00 0.00 39
20260504223531 70 31 3.0 15.0 0.00 0.00 0.00 39
20260504223027 71 183 3.0 8.0 0.00 0.00 0.00 40
20260504222524 70 144 3.0 9.0 0.00 0.00 0.00 39
20260504222021 71 268 2.0 11.0 0.00 0.00 0.00 39
20260504221519 71 104 4.0 7.0 0.00 0.00 0.00 39
20260504221015 72 6 7.0 13.0 0.00 0.00 0.00 39
20260504220512 72 241 5.0 8.0 0.00 0.00 0.00 38
20260504220009 73 89 2.0 11.0 0.00 0.00 0.00 38
20260504215505 72 278 4.0 11.0 0.00 0.00 0.00 39
20260504215003 72 59 7.0 13.0 0.00 0.00 0.00 38
20260504214458 72 151 5.0 14.0 0.00 0.00 0.00 39
20260504213955 71 179 5.0 9.0 0.00 0.00 0.00 40
20260504213451 71 213 3.0 10.0 0.00 0.00 0.00 41
20260504212949 71 179 3.0 11.0 0.00 0.00 0.00 40
20260504212444 72 226 4.0 10.0 0.00 0.00 0.00 39
20260504211942 73 197 1.0 7.0 0.00 0.00 0.00 39
20260504211438 73 55 3.0 7.0 0.00 0.00 0.00 39
20260504210936 72 157 4.0 9.0 0.00 0.00 0.00 39
20260504210433 73 3 5.0 9.0 0.00 0.00 0.00 38
20260504205930 73 134 3.0 15.0 0.00 0.00 0.00 39
20260504205427 73 165 3.0 9.0 0.00 0.00 0.00 39
20260504204926 73 200 3.0 9.0 0.00 0.00 0.00 38
20260504204423 74 347 3.0 7.0 0.00 0.00 0.00 38
20260504203923 73 234 5.0 11.0 0.00 0.00 0.00 38
20260504203420 74 124 3.0 11.0 0.00 0.00 0.00 38
20260504202915 74 97 4.0 13.0 0.00 0.00 0.00 37
20260504202412 74 323 3.0 8.0 0.00 0.00 0.00 37
20260504201909 74 327 3.0 8.0 0.00 0.00 0.00 38
20260504201407 74 22 5.0 13.0 0.00 0.00 0.00 38
20260504200904 74 357 4.0 8.0 0.00 0.00 0.00 38
20260504200400 73 267 6.0 8.0 0.00 0.00 0.00 38
20260504195857 73 27 5.0 14.0 0.00 0.00 0.00 40
20260504195352 74 184 3.0 6.0 0.00 0.00 0.00 40
20260504194849 74 268 6.0 11.0 0.00 0.00 0.00 41
20260504194345 74 303 2.0 8.0 0.00 0.00 0.00 42
20260504193841 73 281 2.0 8.0 0.00 0.00 0.00 44
20260504193339 72 315 4.0 9.0 0.00 0.00 0.00 43
20260504192838 73 31 1.0 10.0 0.00 0.00 0.00 44
20260504192335 73 253 3.0 6.0 0.00 0.00 0.00 43
20260504191833 73 205 6.0 13.0 0.00 0.00 0.00 43
20260504191331 73 249 9.0 14.0 0.00 0.00 0.00 42
20260504190826 74 269 7.0 13.0 0.00 0.00 0.00 42
20260504190322 72 20 3.0 7.0 0.00 0.00 0.00 43
20260504185819 73 8 7.0 15.0 0.00 0.00 0.00 42
20260504185316 73 221 3.0 8.0 0.00 0.00 0.00 42
20260504184812 73 145 4.0 6.0 0.00 0.00 0.00 42
20260504184308 73 187 3.0 8.0 0.00 0.00 0.00 42
20260504183804 73 99 7.0 11.0 0.00 0.00 0.00 42
20260504183301 73 275 2.0 10.0 0.00 0.00 0.00 42
20260504182759 72 251 6.0 13.0 0.00 0.00 0.00 43
20260504182256 73 269 7.0 10.0 0.00 0.00 0.00 42
20260504181753 73 137 6.0 10.0 0.00 0.00 0.00 43
20260504181250 73 102 3.0 9.0 0.00 0.00 0.00 43
20260504180750 72 103 3.0 10.0 0.00 0.00 0.00 43
20260504180248 73 108 3.0 11.0 0.00 0.00 0.00 44
20260504175745 72 182 7.0 11.0 0.00 0.00 0.00 44
20260504175242 72 246 7.0 14.0 0.00 0.00 0.00 44
20260504174740 72 211 6.0 16.0 0.00 0.00 0.00 45
20260504174237 72 73 8.0 16.0 0.00 0.00 0.00 46
20260504173733 71 201 1.0 14.0 0.00 0.00 0.00 48
20260504173231 72 63 1.0 8.0 0.00 0.00 0.00 48
20260504172727 71 11 6.0 10.0 0.00 0.00 0.00 48
20260504172224 70 188 3.0 7.0 0.00 0.00 0.00 49
20260504171720 71 259 9.0 11.0 0.00 0.00 0.00 48
20260504171217 70 163 2.0 6.0 0.00 0.00 0.00 50
20260504170714 70 326 3.0 9.0 0.00 0.00 0.00 50
20260504170212 70 94 3.0 11.0 0.00 0.00 0.00 51
20260504160130 68 187 3.0 7.0 0.00 0.00 0.00 54
20260504151057 65 235 1.0 3.0 0.00 0.00 0.00 57
20260504150555 64 346 2.0 5.0 0.00 0.00 0.00 58
20260504141021 60 346 2.0 5.0 0.00 0.00 0.00 62
20260504140517 60 272 5.0 10.0 0.00 0.00 0.00 62
20260504130442 55 286 3.0 9.0 0.00 0.00 0.00 67
20260504110328 50 205 2.0 6.0 0.00 0.00 0.00 73
20260504100246 49 81 1.0 5.0 0.00 0.00 0.00 74
20260504081639 51 118 2.0 7.0 0.00 0.00 0.00 70
20260504081135 51 116 1.0 5.0 0.00 0.00 0.00 70
20260504080632 51 349 2.0 3.0 0.00 0.00 0.00 69
20260504080128 51 110 3.0 5.0 0.00 0.00 0.00 70
20260504050445 53 209 5.0 7.0 0.00 0.00 0.00 65
20260504045942 53 50 3.0 5.0 0.00 0.00 0.00 64
20260504045438 53 239 5.0 7.0 0.00 0.00 0.00 65
20260504044934 53 247 2.0 8.0 0.00 0.00 0.00 64
20260504044432 53 287 3.0 5.0 0.00 0.00 0.00 64
20260504043929 53 58 3.0 13.0 0.00 0.00 0.00 64
20260504043426 53 351 4.0 6.0 0.00 0.00 0.00 64
20260504042923 53 313 3.0 5.0 0.00 0.00 0.00 63
20260504042420 54 208 2.0 13.0 0.00 0.00 0.00 63
20260504041916 54 12 2.0 6.0 0.00 0.00 0.00 63
20260504041412 54 72 3.0 8.0 0.00 0.00 0.00 62
20260504040908 54 205 1.0 6.0 0.00 0.00 0.00 62
20260504040407 54 131 3.0 5.0 0.00 0.00 0.00 61
20260504035902 54 61 1.0 7.0 0.00 0.04 0.04 61
20260504035400 54 59 1.0 7.0 0.00 0.04 0.04 61
20260504034856 54 359 3.0 6.0 0.00 0.04 0.04 61
20260504034354 54 70 4.0 6.0 0.00 0.04 0.04 60
20260504033850 54 161 3.0 7.0 0.00 0.04 0.04 60
20260504033349 54 349 3.0 7.0 0.00 0.04 0.04 60
20260504032845 54 158 3.0 8.0 0.00 0.04 0.04 60
20260504032342 54 44 1.0 9.0 0.00 0.04 0.04 60
20260504031839 54 343 5.0 9.0 0.00 0.04 0.04 60
20260504031336 54 94 2.0 10.0 0.00 0.04 0.04 60
20260504030832 54 194 3.0 7.0 0.00 0.04 0.04 60
20260504030330 54 69 2.0 7.0 0.00 0.04 0.04 60
20260504025826 54 10 2.0 6.0 0.00 0.04 0.04 59
20260504025323 54 69 2.0 7.0 0.00 0.04 0.04 60
20260504024820 53 40 1.0 2.0 0.00 0.04 0.04 61
20260504024316 53 79 2.0 7.0 0.00 0.04 0.04 60
20260504023813 53 40 1.0 3.0 0.00 0.04 0.04 60